When you browse on this site, cookies collect data to enhance your experience and personalize the content and advertising you see.
Visit our Privacy Policy to learn more. By continuing to use the site, you agree to this use of cookies and data.
  • In Austria
  • List of Countries
  • For 7 days
  • Water Temperature
  • Weather Map
  • News
  • Weather Widgets
  • user-avatar
    Login

    Hourly Weather Ulsan

    Today, 6 April, Monday

    Time Temperature Precipitation Wind Pressure Humidity
    00:00 +7°C° 0 mm 2 mps 757 mmHg 52%
    01:00 +7°C° 0 mm 1 mps 756 mmHg 52%
    02:00 +7°C° 0 mm 1 mps 756 mmHg 52%
    03:00 +7°C° 0 mm 1 mps 756 mmHg 52%
    04:00 +6°C° 0 mm 1 mps 756 mmHg 50%
    05:00 +6°C° 0 mm 1 mps 756 mmHg 47%
    06:00 +6°C° 0 mm 1 mps 756 mmHg 45%
    07:00 +8°C° 0 mm 1 mps 756 mmHg 40%
    08:00 +10°C° 0 mm 1 mps 756 mmHg 35%
    09:00 +11°C° 0 mm 0 mps 756 mmHg 27%
    10:00 +13°C° 0 mm 1 mps 756 mmHg 27%
    11:00 +15°C° 0 mm 2 mps 756 mmHg 26%
    12:00 +16°C° 0 mm 3 mps 756 mmHg 25%
    13:00 +16°C° 0 mm 3 mps 755 mmHg 27%
    14:00 +15°C° 0 mm 4 mps 754 mmHg 29%
    15:00 +15°C° 0 mm 4 mps 754 mmHg 31%
    16:00 +15°C° 0 mm 4 mps 753 mmHg 34%
    17:00 +14°C° 0 mm 4 mps 753 mmHg 37%
    18:00 +14°C° 0 mm 4 mps 753 mmHg 40%
    19:00 +13°C° 0 mm 3 mps 753 mmHg 43%
    20:00 +12°C° 0 mm 3 mps 754 mmHg 45%
    21:00 +11°C° 0 mm 3 mps 753 mmHg 48%
    22:00 +12°C° 0 mm 2 mps 753 mmHg 49%
    23:00 +12°C° 0 mm 2 mps 753 mmHg 50%

    Tomorrow, 7 April, Tuesday

    Time Temperature Precipitation Wind Pressure Humidity
    00:00 +10°C° 0 mm 2 mps 753 mmHg 51%
    01:00 +10°C° 0 mm 2 mps 752 mmHg 51%
    02:00 +10°C° 0 mm 2 mps 752 mmHg 52%
    03:00 +9°C° 0 mm 2 mps 752 mmHg 52%
    04:00 +9°C° 0 mm 2 mps 752 mmHg 51%
    05:00 +9°C° 0 mm 2 mps 752 mmHg 50%
    06:00 +8°C° 0 mm 2 mps 752 mmHg 49%
    07:00 +10°C° 0 mm 2 mps 752 mmHg 43%
    08:00 +12°C° 0 mm 2 mps 752 mmHg 37%
    09:00 +14°C° 0 mm 2 mps 752 mmHg 31%
    10:00 +16°C° 0 mm 3 mps 751 mmHg 31%
    11:00 +17°C° 0 mm 3 mps 751 mmHg 31%
    12:00 +19°C° 0 mm 3 mps 751 mmHg 32%
    13:00 +19°C° 0 mm 4 mps 751 mmHg 33%
    14:00 +20°C° 0 mm 4 mps 750 mmHg 34%
    15:00 +20°C° 0 mm 4 mps 750 mmHg 36%
    16:00 +19°C° 0 mm 4 mps 750 mmHg 38%
    17:00 +19°C° 0 mm 4 mps 749 mmHg 40%
    18:00 +18°C° 0 mm 4 mps 749 mmHg 42%
    19:00 +17°C° 0 mm 4 mps 749 mmHg 45%
    20:00 +14°C° 0 mm 3 mps 750 mmHg 48%
    21:00 +13°C° 0 mm 3 mps 750 mmHg 50%
    22:00 +12°C° 0 mm 3 mps 750 mmHg 53%
    23:00 +11°C° 0 mm 3 mps 750 mmHg 56%

    Day after tomorrow, 8 April, Wednesday

    Time Temperature Precipitation Wind Pressure Humidity
    00:00 +10°C° 0 mm 3 mps 750 mmHg 59%
    01:00 +10°C° 0 mm 4 mps 750 mmHg 57%
    02:00 +8°C° 0 mm 4 mps 750 mmHg 55%
    03:00 +7°C° 0 mm 4 mps 750 mmHg 52%
    04:00 +6°C° 0 mm 4 mps 751 mmHg 51%
    05:00 +6°C° 0 mm 4 mps 751 mmHg 50%
    06:00 +5°C° 0 mm 4 mps 751 mmHg 49%
    07:00 +7°C° 0 mm 4 mps 752 mmHg 43%
    08:00 +8°C° 0 mm 5 mps 752 mmHg 36%
    09:00 +10°C° 0 mm 5 mps 753 mmHg 30%
    10:00 +12°C° 0 mm 5 mps 753 mmHg 27%
    11:00 +13°C° 0 mm 5 mps 753 mmHg 25%
    12:00 +14°C° 0 mm 6 mps 753 mmHg 22%
    13:00 +14°C° 0 mm 6 mps 753 mmHg 22%
    14:00 +15°C° 0 mm 6 mps 753 mmHg 23%
    15:00 +15°C° 0 mm 6 mps 753 mmHg 23%
    16:00 +14°C° 0 mm 5 mps 753 mmHg 25%
    17:00 +13°C° 0 mm 5 mps 753 mmHg 27%
    18:00 +13°C° 0 mm 5 mps 753 mmHg 28%
    19:00 +10°C° 0 mm 5 mps 754 mmHg 29%
    20:00 +9°C° 0 mm 5 mps 754 mmHg 31%
    21:00 +7°C° 0 mm 5 mps 755 mmHg 32%
    22:00 +7°C° 0 mm 5 mps 755 mmHg 34%
    23:00 +6°C° 0 mm 4 mps 755 mmHg 36%

    9 April, Thursday

    Time Temperature Precipitation Wind Pressure Humidity
    00:00 +5°C° 0 mm 4 mps 755 mmHg 39%
    01:00 +5°C° 0 mm 4 mps 755 mmHg 40%
    02:00 +4°C° 0 mm 4 mps 755 mmHg 41%
    03:00 +4°C° 0 mm 4 mps 755 mmHg 42%
    04:00 +4°C° 0 mm 4 mps 755 mmHg 43%
    05:00 +4°C° 0 mm 4 mps 755 mmHg 44%
    06:00 +3°C° 0 mm 4 mps 755 mmHg 46%
    07:00 +5°C° 0 mm 4 mps 755 mmHg 43%
    08:00 +7°C° 0 mm 4 mps 756 mmHg 40%
    09:00 +9°C° 0 mm 5 mps 756 mmHg 38%
    10:00 +10°C° 0 mm 5 mps 756 mmHg 35%
    11:00 +12°C° 0 mm 5 mps 756 mmHg 32%
    12:00 +13°C° 0 mm 4 mps 755 mmHg 29%
    13:00 +14°C° 0 mm 4 mps 755 mmHg 29%
    14:00 +15°C° 0 mm 4 mps 755 mmHg 28%
    15:00 +15°C° 0 mm 4 mps 755 mmHg 27%
    16:00 +15°C° 0 mm 4 mps 755 mmHg 31%
    17:00 +14°C° 0 mm 4 mps 755 mmHg 34%
    18:00 +13°C° 0 mm 4 mps 755 mmHg 37%
    19:00 +12°C° 0 mm 4 mps 756 mmHg 40%
    20:00 +10°C° 0 mm 4 mps 756 mmHg 43%
    21:00 +8°C° 0 mm 4 mps 757 mmHg 46%
    22:00 +7°C° 0 mm 4 mps 757 mmHg 48%
    23:00 +6°C° 0 mm 4 mps 757 mmHg 50%

    10 April, Friday

    Time Temperature Precipitation Wind Pressure Humidity
    00:00 +7°C° 0 mm 3 mps 758 mmHg 53%
    01:00 +5°C° 0 mm 3 mps 758 mmHg 57%
    02:00 +5°C° 0 mm 3 mps 758 mmHg 60%
    03:00 +4°C° 0 mm 3 mps 757 mmHg 64%
    04:00 +5°C° 0 mm 2 mps 758 mmHg 65%
    05:00 +5°C° 0 mm 2 mps 758 mmHg 65%
    06:00 +5°C° 0 mm 2 mps 758 mmHg 66%
    07:00 +6°C° 0 mm 2 mps 759 mmHg 63%
    08:00 +8°C° 0 mm 2 mps 759 mmHg 59%
    09:00 +10°C° 0 mm 2 mps 759 mmHg 56%
    10:00 +12°C° 0 mm 2 mps 759 mmHg 55%
    11:00 +12°C° 0 mm 2 mps 759 mmHg 53%
    12:00 +13°C° 0 mm 2 mps 758 mmHg 52%
    13:00 +13°C° 0 mm 2 mps 758 mmHg 51%
    14:00 +13°C° 0 mm 2 mps 757 mmHg 50%
    15:00 +13°C° 0 mm 3 mps 757 mmHg 49%
    16:00 +12°C° 0 mm 3 mps 757 mmHg 51%
    17:00 +12°C° 0 mm 3 mps 757 mmHg 54%
    18:00 +11°C° 0 mm 3 mps 757 mmHg 57%
    19:00 +10°C° 0 mm 3 mps 757 mmHg 59%
    20:00 +9°C° 0 mm 3 mps 758 mmHg 61%
    21:00 +9°C° 0 mm 3 mps 758 mmHg 64%
    22:00 +8°C° 0 mm 2 mps 758 mmHg 65%
    23:00 +8°C° 0 mm 2 mps 757 mmHg 66%

    11 April, Saturday

    Time Temperature Precipitation Wind Pressure Humidity
    00:00 +7°C° 0 mm 2 mps 757 mmHg 68%
    01:00 +7°C° 0 mm 2 mps 757 mmHg 69%
    02:00 +7°C° 0 mm 2 mps 756 mmHg 70%
    03:00 +7°C° 0 mm 2 mps 756 mmHg 72%
    04:00 +7°C° 0 mm 2 mps 756 mmHg 72%
    05:00 +7°C° 0 mm 2 mps 756 mmHg 72%
    06:00 +6°C° 0 mm 2 mps 756 mmHg 72%
    07:00 +8°C° 0 mm 2 mps 755 mmHg 64%
    08:00 +10°C° 0 mm 2 mps 755 mmHg 57%
    09:00 +13°C° 0 mm 2 mps 755 mmHg 50%
    10:00 +14°C° 0 mm 2 mps 755 mmHg 44%
    11:00 +15°C° 0 mm 2 mps 754 mmHg 39%
    12:00 +16°C° 0 mm 3 mps 754 mmHg 34%
    13:00 +16°C° 0 mm 3 mps 753 mmHg 34%
    14:00 +16°C° 0 mm 3 mps 753 mmHg 35%
    15:00 +15°C° 0 mm 4 mps 753 mmHg 35%
    16:00 +14°C° 0 mm 4 mps 752 mmHg 37%
    17:00 +14°C° 0 mm 3 mps 752 mmHg 39%
    18:00 +14°C° 0 mm 3 mps 752 mmHg 41%
    19:00 +13°C° 0 mm 3 mps 752 mmHg 44%
    20:00 +12°C° 0 mm 3 mps 752 mmHg 46%
    21:00 +10°C° 0 mm 4 mps 752 mmHg 49%
    22:00 +10°C° 0 mm 3 mps 752 mmHg 50%
    23:00 +9°C° 0 mm 3 mps 752 mmHg 51%
    Show more